Theta_e
320 316 314 314 314 316 318 318 319 320 319 322 337 343 342 343 344 343 345 345 345 344 345 344 345 344 343 343 344 344 348 351 350 348 346 346 343 335 330 323 320 315 315 314
317 316 316 316 316 317 318 318 317 323 324 321 335 344 343 342 343 343 343 344 345 345 346 344 343 343 341 340 339 342 345 348 347 347 346 343 333 328 325 320 316 315 313 311
317 319 320 319 318 319 319 319 320 323 326 325 324 325 331 335 342 343 343 344 345 345 345 344 343 340 338 335 331 337 342 344 343 342 339 333 330 326 323 317 316 315 315 312
318 319 320 320 320 319 321 320 322 325 326 326 324 325 321 322 332 341 341 343 344 343 344 343 341 338 336 333 325 326 334 334 326 329 331 329 325 323 317 315 316 316 316 315
320 321 321 322 323 323 322 321 325 323 321 321 322 320 320 324 331 329 335 342 342 343 343 341 339 337 335 331 323 319 331 329 327 329 330 328 325 318 315 316 316 317 317 316
320 323 322 322 323 323 322 322 319 318 317 320 320 320 319 319 325 331 333 341 341 341 340 339 337 335 332 329 322 317 321 322 321 323 321 318 317 316 317 316 317 318 318 317
320 322 322 324 324 322 318 317 318 320 321 322 319 321 319 322 325 326 337 340 339 339 339 337 335 332 330 328 320 318 319 319 319 319 318 318 316 318 317 318 319 319 318 316
320 321 323 323 323 321 321 317 317 321 321 321 321 324 326 327 326 331 339 339 338 337 338 336 333 331 330 327 320 317 316 316 316 315 316 315 316 317 317 318 319 319 318 318
319 322 324 324 323 322 322 321 317 319 320 321 321 329 329 327 327 333 338 337 336 337 336 335 332 330 329 327 325 317 316 317 317 315 318 319 319 319 318 316 319 320 320 321
320 322 324 327 323 322 320 321 321 317 325 325 323 326 328 329 327 327 334 335 335 336 335 333 331 330 329 328 325 322 318 318 318 318 318 317 317 319 319 320 320 320 321 321
319 320 322 326 324 322 323 322 318 316 320 323 324 322 325 327 326 325 327 335 336 336 334 333 331 330 330 328 325 325 323 320 320 320 320 321 321 321 322 322 322 321 321 321
320 319 321 324 325 325 323 323 319 320 320 320 319 319 321 325 327 327 328 330 335 335 334 333 331 330 329 327 325 325 325 324 322 322 323 323 323 322 322 323 322 322 322 320
325 319 321 321 321 321 326 325 321 319 318 322 324 323 324 326 325 329 329 330 334 335 333 332 330 329 328 327 325 325 326 324 324 325 325 324 324 323 323 323 322 321 318 314
325 323 320 322 321 321 327 327 326 322 323 323 322 323 322 322 324 326 330 331 333 335 332 331 330 329 327 326 325 325 325 325 326 326 325 324 324 323 323 321 319 314 312 310
320 321 326 325 327 327 326 325 324 324 323 326 325 323 323 321 321 325 328 330 330 328 329 330 330 328 327 326 325 325 325 326 326 326 325 324 323 321 320 317 313 311 310 308
322 323 325 326 326 326 326 325 324 323 323 322 323 324 321 324 324 325 327 326 329 329 328 328 328 328 327 327 326 325 326 325 325 326 325 323 320 318 314 312 311 309 308 307
324 323 324 325 327 327 327 324 324 323 322 322 323 321 322 322 323 326 325 329 330 329 329 329 329 329 329 328 328 327 326 325 323 323 322 320 315 313 312 310 309 308 305 303
324 324 322 324 328 330 326 323 324 324 324 322 323 322 320 321 324 325 327 330 331 330 330 329 329 329 328 328 327 327 325 323 323 319 315 314 313 311 310 309 308 305 304 304
321 324 327 327 327 327 327 327 326 325 324 323 322 322 323 324 327 329 330 329 330 330 330 330 330 329 328 327 326 325 322 318 316 315 314 312 311 310 308 307 305 303 304 304
322 323 325 326 328 331 327 326 328 325 328 325 323 321 322 324 324 325 328 330 330 330 329 329 328 327 326 325 322 319 318 317 316 314 312 310 309 309 307 305 303 304 303 301
320 320 325 324 324 324 326 326 327 327 326 326 324 323 324 320 322 327 328 327 328 328 327 326 325 324 322 320 319 318 317 316 313 311 310 309 307 306 304 303 304 302 299 298
320 320 320 323 323 324 326 325 326 323 325 327 327 325 325 324 326 327 327 326 326 325 324 323 321 319 318 317 317 315 314 312 311 310 310 308 306 304 303 302 300 300 298 300
321 320 321 322 321 321 325 325 326 325 325 326 327 326 326 326 326 327 326 325 324 323 322 321 320 318 318 317 316 314 313 312 310 310 309 307 305 303 302 302 301 301 301 301
322 322 324 325 324 325 324 325 325 324 326 325 327 327 327 326 325 324 323 323 322 321 321 321 320 319 318 316 314 313 313 311 310 309 308 306 305 302 303 302 302 302 303 302
319 319 321 321 324 325 324 323 324 324 322 324 324 325 326 326 324 323 321 321 322 322 322 321 320 318 317 313 313 313 311 311 309 307 306 306 305 303 303 303 303 303 303 303
318 317 320 321 322 320 320 320 324 321 320 320 321 324 324 325 325 325 324 322 321 320 320 319 318 316 314 313 311 310 308 307 306 306 306 305 305 304 304 304 304 304 302 303
Wind_Speed
4 3 5 9 6 6 2 4 4 8 7 8 13 15 23 32 26 25 31 30 25 21 19 17 16 14 12 12 12 12 15 13 12 12 11 11 9 5 1 3 7 9 11 10
5 5 11 7 8 5 6 6 7 7 4 6 9 18 20 22 31 38 35 34 33 29 27 23 18 14 12 11 11 14 15 16 14 13 15 12 8 3 3 7 8 12 15 16
6 11 2 7 10 5 5 6 4 5 3 5 8 2 5 8 20 30 35 42 42 41 36 29 24 19 15 12 13 14 14 13 14 13 13 11 6 3 5 7 10 14 15 15
6 14 9 12 10 7 3 5 4 3 5 3 4 3 6 10 15 22 28 33 42 42 38 33 28 21 15 13 13 15 14 13 14 17 14 9 5 1 1 4 7 11 14 15
11 7 7 6 6 6 8 0 1 4 4 4 1 4 8 6 9 12 20 35 41 48 43 36 29 20 16 12 12 16 16 14 16 17 14 10 8 8 7 6 6 9 11 13
10 14 6 8 5 3 3 5 8 5 4 2 5 5 7 5 9 17 22 37 42 45 41 34 25 20 17 13 14 17 18 16 16 15 13 10 9 10 8 6 3 4 7 10
7 7 5 3 3 6 8 7 4 4 4 5 5 2 8 9 6 12 29 36 38 43 41 35 31 26 20 16 17 20 20 19 17 15 14 12 10 12 8 6 3 0 5 10
2 8 2 2 4 8 4 8 6 5 4 5 6 3 5 6 11 15 30 41 37 38 40 37 33 28 21 17 17 21 22 20 18 17 17 14 12 10 8 7 6 2 4 8
6 6 4 6 7 10 5 2 5 6 2 3 4 1 4 6 9 18 23 29 36 42 41 38 35 29 21 18 17 23 23 21 18 17 16 14 11 10 5 4 2 2 3 5
8 3 2 4 4 5 8 6 3 4 3 3 4 4 5 3 6 9 15 24 30 39 40 40 38 31 23 19 18 19 21 19 17 15 12 9 8 7 5 5 4 4 6 10
7 7 7 2 1 5 1 1 5 5 5 5 2 5 6 10 8 10 18 33 41 42 44 44 41 33 27 23 25 23 23 21 18 14 12 11 8 7 7 5 4 6 9 12
7 6 6 8 5 6 6 5 5 5 6 3 4 6 5 9 17 23 24 26 37 41 45 44 42 37 34 31 31 28 23 20 17 13 11 8 7 10 12 9 8 10 12 15
0 1 1 8 5 5 3 4 5 4 4 6 6 6 5 7 12 25 25 27 32 40 43 44 45 43 41 38 36 31 23 20 15 13 11 14 14 17 15 14 12 12 13 13
2 4 6 9 9 5 4 3 4 6 4 4 6 6 7 8 9 14 27 30 36 39 43 44 44 44 44 41 37 32 27 22 19 20 19 20 21 19 15 10 9 9 10 10
5 6 5 5 5 3 5 6 6 5 6 6 6 7 9 11 11 26 31 30 35 30 32 41 44 42 42 42 37 32 29 25 23 24 22 23 20 13 7 7 9 7 10 13
3 2 1 2 5 8 10 8 7 7 5 5 7 8 10 18 14 13 27 20 27 30 32 36 38 37 38 35 35 33 28 23 21 17 20 17 12 9 6 5 5 10 11 14
2 4 3 5 5 7 8 8 10 7 7 7 8 9 5 5 10 9 19 32 36 38 36 39 40 38 37 34 34 31 25 20 19 19 17 15 8 3 3 3 6 11 16 11
4 3 3 5 1 10 4 8 10 14 16 5 3 7 10 9 6 14 26 36 38 38 39 38 37 34 31 30 26 23 20 20 18 16 15 11 7 5 3 4 10 14 11 8
7 5 2 4 6 10 2 2 2 4 12 3 7 7 10 14 15 12 26 31 39 39 37 36 33 31 31 29 27 25 23 19 17 15 14 11 7 4 2 8 12 8 5 5
6 4 5 3 5 11 4 9 21 4 20 5 9 9 11 15 4 5 29 36 38 38 38 37 35 33 31 29 28 24 22 21 19 16 12 10 6 3 8 7 2 5 7 9
2 2 7 6 6 6 3 9 17 10 11 11 10 6 11 5 11 25 36 37 42 43 42 40 37 36 32 29 25 24 25 22 18 16 12 6 1 6 4 5 6 8 8 8
5 4 4 1 4 8 3 2 4 0 3 6 9 10 12 15 15 39 43 43 45 46 45 40 38 34 32 28 23 25 24 20 16 14 8 3 2 3 5 7 11 11 13 14
8 8 5 8 6 4 7 4 5 3 5 4 5 9 7 14 24 40 47 47 48 48 44 38 34 32 26 20 16 20 19 16 13 11 7 4 5 3 11 9 8 5 8 10
3 3 3 1 1 0 5 8 6 6 4 1 2 3 10 14 22 30 37 48 50 46 42 36 29 25 20 17 15 14 16 14 11 8 6 9 6 5 10 8 5 3 5 6
5 3 1 4 3 1 6 9 3 3 5 3 5 6 11 19 27 30 25 35 42 42 36 30 29 24 21 19 18 16 14 13 9 8 10 12 9 6 9 7 2 2 4 6
6 5 4 5 5 6 14 16 11 5 5 5 5 9 15 21 31 37 37 37 41 37 32 31 27 22 20 21 18 17 14 11 8 13 14 14 12 8 5 3 2 2 2 4
Wind_Direction
275 65 252 256 218 219 204 232 250 270 250 127 173 158 182 183 164 162 170 181 181 193 189 201 207 204 209 215 205 202 202 187 188 177 197 217 229 213 186 19 12 16 11 8
3 256 240 249 283 266 266 265 277 276 38 84 161 175 182 175 180 180 176 176 177 176 179 195 208 216 217 214 206 199 195 190 193 213 206 220 199 158 67 35 39 42 36 30
180 244 229 216 260 257 263 211 204 210 355 39 119 26 186 222 195 191 187 184 182 185 181 190 199 206 209 202 195 193 192 192 192 197 202 193 179 107 32 40 42 49 38 33
228 262 238 256 257 166 227 214 198 104 113 200 115 249 228 212 203 202 186 178 180 177 187 190 192 191 195 196 194 200 192 180 171 180 192 191 175 116 99 67 62 52 41 32
263 291 300 217 202 171 215 182 91 77 117 105 42 101 259 149 206 215 184 181 181 186 191 190 189 192 192 191 192 192 192 187 180 181 188 190 192 181 156 120 69 45 33 26
257 281 214 221 230 189 82 72 36 47 93 43 232 124 291 211 203 217 177 181 181 183 188 188 185 188 183 181 186 182 181 180 176 175 175 174 175 164 151 135 118 53 23 16
335 296 280 182 111 29 78 60 7 359 12 231 317 83 239 304 224 198 173 179 179 181 186 183 184 184 183 179 183 184 180 177 175 180 181 180 164 151 162 161 174 28 345 354
215 319 28 291 206 173 186 145 153 195 205 250 319 296 286 318 320 150 168 169 172 176 185 186 187 189 185 179 180 183 178 179 176 177 179 174 168 161 160 170 190 224 326 348
176 252 277 278 216 144 175 124 184 110 78 82 265 197 352 351 28 83 130 154 167 180 187 189 190 190 186 189 184 189 185 181 175 175 175 177 177 175 189 213 251 306 304 327
224 274 248 341 48 52 137 158 61 13 168 220 281 284 234 232 142 123 140 160 176 183 189 191 191 192 195 198 189 191 197 193 185 185 192 199 210 212 222 221 265 303 323 322
171 154 262 56 60 189 49 107 68 119 137 170 201 265 216 204 190 172 171 180 187 190 194 194 193 196 202 198 197 194 197 203 201 199 204 198 199 209 233 255 283 281 289 298
198 157 215 193 189 154 161 231 139 131 260 217 160 263 276 196 200 191 193 186 193 200 200 198 194 199 200 199 200 201 199 207 203 205 202 192 194 208 224 244 266 273 283 300
356 343 115 323 346 356 165 187 164 114 76 203 155 253 237 239 209 210 199 199 198 200 200 198 195 199 201 200 201 200 203 202 196 188 194 206 211 213 225 237 259 268 289 305
79 135 165 207 211 172 173 221 158 130 122 216 205 232 279 258 236 213 210 207 197 198 199 198 198 201 201 199 199 199 196 190 194 197 204 200 214 210 213 229 256 304 323 340
124 195 196 212 236 263 227 212 233 196 208 174 250 217 239 231 217 216 211 209 202 195 191 197 198 197 197 194 197 193 188 193 200 206 205 205 198 203 217 269 320 342 338 333
4 275 189 261 257 256 264 254 222 233 245 242 238 256 247 269 275 220 228 181 171 182 184 187 190 187 188 192 193 189 191 190 202 208 204 191 198 227 269 316 325 320 322 326
150 133 88 255 260 295 280 219 236 250 227 201 249 240 209 225 170 219 166 170 166 169 171 176 177 176 175 178 184 187 187 190 177 180 187 202 202 218 210 275 310 321 332 343
147 121 145 232 214 256 252 207 216 238 257 222 240 216 209 205 219 208 192 169 159 164 165 166 163 162 166 172 179 183 179 168 172 175 174 174 185 201 209 306 320 331 331 342
188 134 228 187 215 264 303 183 123 289 280 223 233 231 197 150 108 111 168 181 169 166 162 159 163 163 162 163 163 163 160 166 170 171 173 177 193 209 329 325 327 328 10 17
153 155 167 141 207 250 162 225 249 193 269 247 229 208 181 156 138 211 169 167 163 164 162 160 161 158 155 157 162 163 167 170 172 175 176 175 185 289 321 333 63 63 30 352
341 313 220 223 250 256 228 199 207 205 256 333 297 193 182 210 213 184 171 167 169 167 163 161 160 160 161 165 167 166 171 177 174 169 163 172 288 328 344 120 90 49 10 36
195 185 218 194 234 299 182 102 211 124 354 347 325 341 280 233 196 172 174 170 167 162 160 162 157 152 156 162 166 161 166 166 166 162 169 195 0 23 137 115 94 76 78 67
228 206 204 187 216 273 27 51 338 28 10 359 321 305 231 207 184 179 172 171 167 162 160 160 157 155 158 169 183 169 170 175 184 183 203 199 149 128 150 128 127 78 48 52
203 41 190 125 224 331 24 84 66 49 113 123 304 239 180 168 160 159 163 163 163 163 162 164 164 166 170 180 178 189 180 186 192 195 198 174 152 144 153 152 133 63 9 356
226 30 166 262 289 4 27 1 347 7 339 205 265 217 182 173 166 156 161 167 168 169 169 175 178 175 171 175 181 191 196 197 211 215 187 174 164 150 161 160 138 7 346 354
192 205 208 233 199 281 279 294 279 247 294 282 273 231 189 197 183 172 190 194 177 173 175 174 176 173 171 177 182 187 194 195 190 182 185 177 173 167 161 185 243 310 269 311